• In Uzbekistan
  • List of Countries
  • For 7 days
  • Water Temperature
  • Satellite Maps
  • Weather Map
  • Weather Widgets
  • user-avatar
    Login

    Hourly Weather Ioannina

    Today, 16 December, Saturday

    Time Temperature Precipitation Wind Pressure Humidity
    00:00 +7°C° 0.3 mm 4 mps 683 mmHg 94%
    01:00 +7°C° 0.3 mm 4 mps 683 mmHg 94%
    02:00 +7°C° 0.3 mm 4 mps 683 mmHg 95%
    03:00 +7°C° 0.3 mm 4 mps 682 mmHg 95%
    04:00 +7°C° 0.3 mm 4 mps 682 mmHg 95%
    05:00 +7°C° 0.2 mm 4 mps 682 mmHg 95%
    06:00 +7°C° 0.2 mm 4 mps 682 mmHg 95%
    07:00 +7°C° 0.2 mm 4 mps 682 mmHg 95%
    08:00 +7°C° 0.3 mm 4 mps 682 mmHg 93%
    09:00 +8°C° 0.3 mm 4 mps 682 mmHg 91%
    10:00 +8°C° 0.3 mm 5 mps 682 mmHg 89%
    11:00 +8°C° 1 mm 5 mps 682 mmHg 88%
    12:00 +8°C° 1 mm 4 mps 682 mmHg 87%
    13:00 +8°C° 1 mm 4 mps 681 mmHg 85%
    14:00 +7°C° 2.6 mm 4 mps 681 mmHg 88%
    15:00 +8°C° 2.6 mm 3 mps 680 mmHg 91%
    16:00 +7°C° 2.6 mm 2 mps 680 mmHg 94%
    17:00 +7°C° 1.2 mm 2 mps 680 mmHg 94%
    18:00 +7°C° 1.2 mm 2 mps 680 mmHg 94%
    19:00 +6°C° 1.2 mm 2 mps 681 mmHg 94%
    20:00 +6°C° 1.5 mm 2 mps 681 mmHg 94%
    21:00 +6°C° 1.5 mm 2 mps 681 mmHg 94%
    22:00 +6°C° 1.5 mm 2 mps 681 mmHg 94%
    23:00 +6°C° 0.9 mm 2 mps 681 mmHg 94%

    Tomorrow, 17 December, Sunday

    Time Temperature Precipitation Wind Pressure Humidity
    00:00 +7°C° 0.9 mm 1 mps 681 mmHg 94%
    01:00 +7°C° 0.9 mm 1 mps 681 mmHg 94%
    02:00 +7°C° 0.2 mm 1 mps 681 mmHg 94%
    03:00 +7°C° 0.2 mm 1 mps 681 mmHg 94%
    04:00 +7°C° 0.2 mm 1 mps 681 mmHg 94%
    05:00 +6°C° 0 mm 1 mps 681 mmHg 94%
    06:00 +6°C° 0 mm 1 mps 682 mmHg 93%
    07:00 +5°C° 0 mm 1 mps 682 mmHg 93%
    08:00 +6°C° 0.1 mm 1 mps 682 mmHg 85%
    09:00 +7°C° 0.1 mm 1 mps 683 mmHg 76%
    10:00 +7°C° 0.1 mm 2 mps 683 mmHg 67%
    11:00 +7°C° 0.1 mm 2 mps 683 mmHg 65%
    12:00 +8°C° 0.1 mm 2 mps 683 mmHg 63%
    13:00 +8°C° 0.1 mm 2 mps 683 mmHg 61%
    14:00 +7°C° 0.1 mm 2 mps 683 mmHg 66%
    15:00 +6°C° 0.1 mm 2 mps 683 mmHg 71%
    16:00 +6°C° 0.1 mm 1 mps 683 mmHg 76%
    17:00 +5°C° 0 mm 1 mps 684 mmHg 79%
    18:00 +4°C° 0 mm 1 mps 684 mmHg 83%
    19:00 +4°C° 0 mm 1 mps 685 mmHg 86%
    20:00 +3°C° 0 mm 1 mps 685 mmHg 86%
    21:00 +3°C° 0 mm 1 mps 685 mmHg 87%
    22:00 +3°C° 0 mm 1 mps 686 mmHg 87%
    23:00 +3°C° 0 mm 1 mps 686 mmHg 87%

    Day after tomorrow, 18 December, Monday

    Time Temperature Precipitation Wind Pressure Humidity
    00:00 +2°C° 0 mm 1 mps 686 mmHg 86%
    01:00 +2°C° 0 mm 1 mps 686 mmHg 86%
    02:00 +2°C° 0 mm 1 mps 686 mmHg 85%
    03:00 +2°C° 0 mm 1 mps 686 mmHg 83%
    04:00 +2°C° 0 mm 1 mps 686 mmHg 81%
    05:00 +2°C° 0 mm 1 mps 686 mmHg 81%
    06:00 +2°C° 0 mm 1 mps 686 mmHg 81%
    07:00 +1°C° 0 mm 1 mps 687 mmHg 81%
    08:00 +3°C° 0 mm 1 mps 687 mmHg 75%
    09:00 +4°C° 0 mm 1 mps 687 mmHg 68%
    10:00 +5°C° 0 mm 1 mps 688 mmHg 61%
    11:00 +5°C° 0 mm 2 mps 688 mmHg 59%
    12:00 +5°C° 0 mm 2 mps 687 mmHg 57%
    13:00 +5°C° 0 mm 2 mps 687 mmHg 55%
    14:00 +4°C° 0.1 mm 2 mps 687 mmHg 62%
    15:00 +3°C° 0.1 mm 2 mps 687 mmHg 68%
    16:00 +2°C° 0.1 mm 2 mps 687 mmHg 75%
    17:00 +1°C° 0 mm 2 mps 687 mmHg 79%
    18:00 +2°C° 0 mm 1 mps 687 mmHg 83%
    19:00 +1°C° 0 mm 1 mps 687 mmHg 87%
    20:00 +1°C° 0 mm 1 mps 688 mmHg 87%
    21:00 +1°C° 0 mm 1 mps 688 mmHg 87%
    22:00 +1°C° 0 mm 1 mps 688 mmHg 87%
    23:00 0°C° 0 mm 1 mps 688 mmHg 86%

    19 December, Tuesday

    Time Temperature Precipitation Wind Pressure Humidity
    00:00 0°C° 0 mm 1 mps 689 mmHg 86%
    01:00 0°C° 0 mm 1 mps 689 mmHg 86%
    02:00 0°C° 0 mm 1 mps 689 mmHg 84%
    03:00 -1°C° 0 mm 1 mps 689 mmHg 83%
    04:00 -1°C° 0 mm 1 mps 689 mmHg 81%
    05:00 -1°C° 0 mm 1 mps 690 mmHg 79%
    06:00 -1°C° 0 mm 1 mps 690 mmHg 77%
    07:00 -1°C° 0 mm 1 mps 690 mmHg 76%
    08:00 0°C° 0 mm 1 mps 691 mmHg 68%
    09:00 +2°C° 0 mm 1 mps 692 mmHg 60%
    10:00 +3°C° 0 mm 1 mps 692 mmHg 52%
    11:00 +4°C° 0 mm 1 mps 692 mmHg 49%
    12:00 +4°C° 0 mm 1 mps 692 mmHg 47%
    13:00 +5°C° 0 mm 1 mps 692 mmHg 45%
    14:00 +4°C° 0 mm 1 mps 692 mmHg 49%
    15:00 +3°C° 0 mm 1 mps 692 mmHg 54%
    16:00 +2°C° 0 mm 1 mps 692 mmHg 58%
    17:00 +1°C° 0 mm 1 mps 692 mmHg 60%
    18:00 -2°C° 0 mm 2 mps 692 mmHg 62%
    19:00 -3°C° 0 mm 2 mps 692 mmHg 64%
    20:00 -3°C° 0 mm 2 mps 693 mmHg 64%
    21:00 -3°C° 0 mm 2 mps 693 mmHg 64%
    22:00 -4°C° 0 mm 2 mps 693 mmHg 64%
    23:00 -4°C° 0 mm 2 mps 693 mmHg 63%

    20 December, Wednesday

    Time Temperature Precipitation Wind Pressure Humidity
    00:00 -4°C° 0 mm 2 mps 693 mmHg 62%
    01:00 -4°C° 0 mm 2 mps 693 mmHg 61%
    02:00 -4°C° 0 mm 2 mps 693 mmHg 60%
    03:00 -4°C° 0 mm 2 mps 693 mmHg 60%
    04:00 -4°C° 0 mm 2 mps 693 mmHg 59%
    05:00 -5°C° 0 mm 2 mps 693 mmHg 59%
    06:00 -5°C° 0 mm 2 mps 693 mmHg 59%
    07:00 -5°C° 0 mm 2 mps 693 mmHg 58%
    08:00 -1°C° 0 mm 1 mps 693 mmHg 51%
    09:00 +1°C° 0 mm 1 mps 694 mmHg 44%
    10:00 +2°C° 0 mm 1 mps 694 mmHg 37%
    11:00 +3°C° 0 mm 1 mps 694 mmHg 38%
    12:00 +3°C° 0 mm 1 mps 694 mmHg 38%
    13:00 +4°C° 0 mm 1 mps 693 mmHg 38%
    14:00 +3°C° 0 mm 1 mps 693 mmHg 44%
    15:00 +2°C° 0 mm 1 mps 693 mmHg 49%
    16:00 +1°C° 0 mm 1 mps 693 mmHg 54%
    17:00 +1°C° 0 mm 1 mps 693 mmHg 56%
    18:00 0°C° 0 mm 1 mps 693 mmHg 57%
    19:00 0°C° 0 mm 1 mps 693 mmHg 59%
    20:00 -1°C° 0 mm 1 mps 693 mmHg 60%
    21:00 -1°C° 0 mm 1 mps 693 mmHg 61%
    22:00 -2°C° 0 mm 1 mps 693 mmHg 62%
    23:00 -2°C° 0 mm 1 mps 693 mmHg 62%

    21 December, Thursday

    Time Temperature Precipitation Wind Pressure Humidity
    00:00 -4°C° 0 mm 2 mps 693 mmHg 63%
    01:00 -4°C° 0 mm 2 mps 693 mmHg 63%
    02:00 -4°C° 0 mm 2 mps 693 mmHg 62%
    03:00 -5°C° 0 mm 2 mps 693 mmHg 61%
    04:00 -5°C° 0 mm 2 mps 693 mmHg 61%
    05:00 -5°C° 0 mm 2 mps 693 mmHg 59%
    06:00 -5°C° 0 mm 2 mps 693 mmHg 57%
    07:00 -5°C° 0 mm 2 mps 693 mmHg 55%
    08:00 -1°C° 0 mm 1 mps 694 mmHg 48%
    09:00 +1°C° 0 mm 1 mps 694 mmHg 41%
    10:00 +3°C° 0 mm 1 mps 695 mmHg 34%
    11:00 +3°C° 0 mm 1 mps 695 mmHg 33%
    12:00 +3°C° 0 mm 2 mps 695 mmHg 33%
    13:00 +4°C° 0 mm 2 mps 695 mmHg 32%
    14:00 +3°C° 0 mm 2 mps 694 mmHg 38%
    15:00 +1°C° 0 mm 2 mps 694 mmHg 44%
    16:00 +1°C° 0 mm 1 mps 694 mmHg 51%
    17:00 +1°C° 0 mm 1 mps 694 mmHg 53%
    18:00 0°C° 0 mm 1 mps 694 mmHg 55%
    19:00 0°C° 0 mm 1 mps 694 mmHg 57%
    20:00 0°C° 0 mm 1 mps 694 mmHg 55%
    21:00 0°C° 0 mm 1 mps 694 mmHg 54%
    22:00 0°C° 0 mm 1 mps 694 mmHg 53%
    23:00 0°C° 0 mm 1 mps 694 mmHg 51%
    Show more

    XHprof extension not loaded